TimeEST,TemperatureF,Dew PointF,Humidity,Sea Level PressureIn,VisibilityMPH,Wind Direction,Wind SpeedMPH,Gust SpeedMPH,PrecipitationIn,Events,Conditions,WindDirDegrees,DateUTC
12:55 AM,47.1,36.9,68,30.24,10.0,SSE,13.8,-,N/A,,Overcast,150,2012-11-11 05:55:00
1:55 AM,47.3,37.4,68,30.24,10.0,SSE,11.5,-,N/A,,Overcast,150,2012-11-11 06:55:00
2:55 AM,47.3,37.4,68,30.28,10.0,SSE,6.9,-,N/A,,Overcast,150,2012-11-11 07:55:00
3:01 AM,48.2,37.4,66,30.27,10.0,SSE,9.2,-,N/A,Rain,Light Rain,150,2012-11-11 08:01:00
3:20 AM,46.4,41.0,81,30.25,8.0,SE,13.8,-,N/A,Rain,Light Rain,140,2012-11-11 08:20:00
3:55 AM,44.8,42.1,90,30.27,9.0,South,10.4,-,0.07,Rain,Light Rain,170,2012-11-11 08:55:00
3:57 AM,44.6,42.8,93,30.27,9.0,South,9.2,-,N/A,Rain,Light Rain,170,2012-11-11 08:57:00
4:17 AM,44.6,42.8,93,30.27,10.0,SSE,12.7,-,N/A,,Overcast,150,2012-11-11 09:17:00
4:55 AM,45.0,42.6,91,30.27,10.0,SSE,13.8,-,0.00,,Overcast,150,2012-11-11 09:55:00
5:09 AM,44.6,42.8,93,30.26,10.0,SSE,15.0,-,N/A,,Light Drizzle,150,2012-11-11 10:09:00
5:25 AM,44.6,42.8,93,30.26,10.0,SSE,16.1,-,N/A,,Overcast,150,2012-11-11 10:25:00
5:55 AM,45.5,42.3,88,30.25,10.0,SSE,17.3,-,0.00,,Overcast,150,2012-11-11 10:55:00
6:55 AM,45.3,41.9,88,30.26,10.0,SSE,12.7,-,N/A,,Mostly Cloudy,150,2012-11-11 11:55:00
7:55 AM,46.2,42.1,85,30.29,10.0,SSE,15.0,-,N/A,,Overcast,150,2012-11-11 12:55:00
8:55 AM,48.7,42.6,79,30.29,10.0,SSE,15.0,-,N/A,,Mostly Cloudy,150,2012-11-11 13:55:00
9:55 AM,52.9,43.7,71,30.29,10.0,SSE,12.7,-,N/A,,Mostly Cloudy,150,2012-11-11 14:55:00
10:55 AM,57.9,44.6,61,30.29,10.0,SSE,9.2,-,N/A,,Clear,150,2012-11-11 15:55:00
11:55 AM,68.0,37.2,32,30.27,10.0,SSW,13.8,-,N/A,,Clear,210,2012-11-11 16:55:00
12:55 PM,69.1,37.2,31,30.25,10.0,SW,10.4,19.6,N/A,,Clear,230,2012-11-11 17:55:00
1:55 PM,69.4,36.7,30,30.24,10.0,SW,13.8,-,N/A,,Clear,220,2012-11-11 18:55:00
2:55 PM,66.6,39.2,37,30.24,10.0,South,9.2,-,N/A,,Clear,180,2012-11-11 19:55:00
3:55 PM,63.5,39.4,41,30.25,10.0,SSE,5.8,-,N/A,,Clear,150,2012-11-11 20:55:00
4:55 PM,61.3,41.7,49,30.25,10.0,SSE,10.4,-,N/A,,Clear,160,2012-11-11 21:55:00
5:55 PM,60.4,41.7,50,30.25,10.0,SSE,13.8,-,N/A,,Clear,160,2012-11-11 22:55:00
6:55 PM,59.5,41.7,52,30.26,10.0,SSE,13.8,-,N/A,,Clear,150,2012-11-11 23:55:00
7:55 PM,58.5,41.9,54,30.25,10.0,SSE,12.7,-,N/A,,Clear,150,2012-11-12 00:55:00
8:55 PM,61.5,38.3,42,30.25,10.0,SSE,12.7,-,N/A,,Clear,160,2012-11-12 01:55:00
9:55 PM,60.3,38.3,44,30.24,10.0,SSE,13.8,-,N/A,,Clear,150,2012-11-12 02:55:00
10:55 PM,57.2,39.9,52,30.23,10.0,SSE,13.8,-,N/A,,Clear,150,2012-11-12 03:55:00
11:55 PM,56.5,38.3,51,30.22,10.0,SSE,13.8,-,N/A,,Clear,150,2012-11-12 04:55:00